Showing default

COSMOS 2431 (GLONASS), 32277

Orbit data source: Space-Track

COSMOS 2431 (GLONASS), 32277 is a Commonwealth of Independent States-origin payload satellite in MEO that was launched on Fri, 26 Oct 2007 UTC via a PROTON-K/DM-2 launch vehicle from the Tyuratam Missile And Space Complex (TTMTR). Payload-class satellites include a variety of spacecraft equipped with specific instruments for various scientific and technological missions. These include communications satellites like Starlink; space stations such as the ISS; scientific satellites like the Hubble; Earth observation satellites from companies like Planet Labs, Umbra, and HawkEye 360; GPS; miniature CubeSats for education and research; and military/defense satellites.

Loading next visibility...
Identifier
32277, 2007-052C
Orbit
MEO
Country
Flag of CISCIS
Related business
Manufacturer
Resehetnev ISS
Mission
Non-operational Defense Navigation
Bus & Motor
URAGAN, Unknown motor
Mass
1,450 kg wet, ~1,200 kg dry
Launch date (UTC)
2007-10-26 (19 years ago)
Launch vehicle
PROTON-K/DM-2
Launch site
Tyuratam Missile And Space Complex (TTMTR)
Object type
Payload
Rocket body
Debris
Shape & HBR
Cyl + 1 Ant + 2 Pan, 3.9 m
Radar Cross Section
8.467 m², Large (>1 m²)

Expand to show TLE details & history
Last TLE update: 2 days ago

TLE from 2 days ago
0 COSMOS 2431 (GLONASS)
1 32277U 07052C   26128.42741343 -.00000016  00000-0  00000-0 0  9990
2 32277  65.6125 317.1956 0015095 169.3700 182.8488  2.13209294144365
Epoch: 2026-05-08T10:15Z
TLE epoch observation values (Epoch: 2026-05-08T10:15:28.520Z)
Latitude
-7.11703°
Longitude
-66.17342°
Altitude
19,161.534 km
Speed
3.948 km/s
True Right ascension
20h 55m 49s
True Declination
-7° 06' 19"
Sunlit
Object was in daylight at epoch
Visualization orbit readout
Latitude
Unknown
Longitude
Unknown
Altitude
Unknown
Speed
Unknown
Apparent Right ascension
Unknown
Apparent Declination
Unknown
Sunlit
N/A
Visualization observer readout
Local Sidereal Time
19:41:58
Azimuth
Unknown
Elevation
Unknown
Doppler factor
Unknown
Orbital elements
Apogee altitude
19,159.414 km
Perigee altitude
19,082.432 km
Semi-major axis
25,499.06 km
Eccentricity
0.00151
Inclination
65.6125°
RAAN
317.1956°
Arg. of periapsis
169.37°
True anomaly
182.84022°
Mean anomaly
182.8488°
Eccentric anomaly
182.84451°
Mean motion
0.53304 °/min
Orbital period
675.38 mins
BSTAR
0
Loading maneuver chart data...
Computing Atmospheric mass density...
Loading historical data...
Loading historical data...
Loading historical data...
Loading historical data...
Loading historical data...
Loading historical data...
Loading historical data...

Documentation

Showing up to 5 results
|